sat.trackr.live / text

‹ back to catalog

FENGYUN 3A

NORAD 32958 · 2008-026A

PAYLOAD ACTIVE UNKNOWN

§ Identity

Operator
Country
PRC
Launch date
2008-05-27
Launch site
TAISC
Launch vehicle
Mass (kg)
RCS (m²)
6.58

Purposes: earth_obs

External: N2YO · Heavens-Above · Gunter

§ Orbital elements

Epoch: 2026-09-20T03:05:46.900320Z

Period
101.44 min
Inclination
98.6940°
Eccentricity
0.0008030
Mean motion
14.19587568 rev/d
Perigee alt
821.0 km
Apogee alt
832.5 km
Semi-major
7,204.9 km
B*
3.7245e-5
RAAN
202.2056°
Arg perigee
208.5119°
Mean anomaly
151.5619°
Rev number
94,887

§ Raw data

FENGYUN 3A1 32958U 08026A   26263.12901505  .00000035  00000+0  37245-4 0  99972 32958  98.6940 202.2056 0008030 208.5119 151.5619 14.19587568948877

JSON: /api/v1/satellites/32958 · /tle

For live sub-satellite position, see the globe view (requires WebGL).

§ Visibility from observer

Set your observer location to see the next 7 days of passes ≥ 10°. The values pass through the URL so the page stays shareable.

No JS? Fill the form by hand. The geolocation button needs JavaScript.

§ Radio — SatNOGS DB

ModeDescriptionDownlinkUplink
AHRPT AHRPT 1704.5 GHz 1.705 GHz
AHRPT AHRPT Downlink 1.705 GHz
PSK MPT 7.775 GHz
QPSK Mode X 8.146 GHz
FM S-band telemetry 2.265 GHz

5 transmitters · refreshed weekly from db.satnogs.org